This demonstration page uses our WeatherBlox Daily Observations layout. Learn more.

Left ArrowRight Arrow

40.92501, -98.34201

Hourly Observations for June 6, 2020

Temp ( °F °C ) Dew Point ( °F °C ) Humidity (%) Winds ( mph kmh ) Pressure ( in mb ) Visibility ( mi km ) Precip ( " mm )
12:53 am 00:53 Clear 78 25.6 67 19.4 69 69 SE 9 15 29.89 1012 10 16 0.00 0.00
1:53 am 01:53 Clear 77 25 68 20 74 74 SE 10 17 29.88 1012 10 16 0.00 0.00
2:53 am 02:53 Clear 76 24.4 69 20.6 79 79 SE 12 19 29.88 1012 10 16 0.00 0.00
3:53 am 03:53 Clear 76 24.4 68 20 77 77 SSE 8 13 29.87 1012 10 16 0.00 0.00
4:53 am 04:53 Clear 75 23.9 68 20 79 79 SE 8 13 29.87 1012 10 16 0.00 0.00
5:53 am 05:53 Clear 74 23.3 67 19.4 79 79 SE 8 13 29.89 1012 10 16 0.00 0.00
6:53 am 06:53 Mostly Cloudy with Nearby Thunderstorms 75 23.9 67 19.4 76 76 Calm 29.93 1014 10 16 0.00 0.00
7:53 am 07:53 Sunny 74 23.3 67 19.4 79 79 ESE 12 19 29.91 1013 10 16 0.00 0.00
7:57 am 07:57 Sunny 73 22.8 67 19.4 81 81 ESE 12 19 29.88 1012 10 16 0.00 0.00
8:53 am 08:53 Sunny 77 25 66 18.9 69 69 S 13 20 29.88 1012 10 16 0.00 0.00
9:53 am 09:53 Sunny 81 27.2 67 19.4 62 62 S 17 28 29.87 1011 10 16 0.00 0.00
10:53 am 10:53 Sunny 83 28.3 69 20.6 63 63 S 16 26 29.85 1011 10 16 0.00 0.00
11:53 am 11:53 Sunny 85 29.4 69 20.6 59 59 S 17 28 29.84 1011 10 16 0.00 0.00
12:53 pm 12:53 Sunny 87 30.6 70 21.1 57 57 S 14 22 29.84 1011 10 16 0.00 0.00
1:53 pm 13:53 Sunny 88 31.1 70 21.1 55 55 SSE 17 28 29.83 1010 10 16 0.00 0.00
2:53 pm 14:53 Sunny 91 32.8 69 20.6 49 49 S 20 31 29.80 1009 10 16 0.00 0.00
3:53 pm 15:53 Sunny 96 35.6 67 19.4 39 39 SSE 22 35 29.78 1008 10 16 0.00 0.00
4:53 pm 16:53 Sunny 96 35.6 65 18.3 36 36 S 21 33 29.75 1008 10 16 0.00 0.00
5:53 pm 17:53 Sunny 93 33.9 66 18.9 41 41 SSE 22 35 29.74 1007 10 16 0.00 0.00
6:53 pm 18:53 Sunny 91 32.8 64 17.8 41 41 SSE 22 35 29.73 1007 10 16 0.00 0.00
7:53 pm 19:53 Sunny 90 32.2 64 17.8 42 42 SSE 22 35 29.72 1006 10 16 0.00 0.00
8:53 pm 20:53 Sunny 88 31.1 64 17.8 45 45 SSE 18 30 29.72 1006 10 16 0.00 0.00
9:53 pm 21:53 Clear 85 29.4 66 18.9 53 53 SSE 16 26 29.74 1007 10 16 0.00 0.00
10:53 pm 22:53 Clear 83 28.3 67 19.4 59 59 SSE 16 26 29.75 1008 10 16 0.00 0.00
11:53 pm 23:53 Clear 82 27.8 66 18.9 58 58 SSE 21 33 29.76 1008 10 16 0.00 0.00

Powered by AerisWeather